User: anonymous   Login
Location: Gollag?dem
(16.8053°N, 80.8024°E)
Time: 11:45:12
(UTC+00:00)
Language:

Meteor 1-31 Rocket - Orbit

View from above orbital plane
View from above orbital plane
View from above satellite
View from above satellite

Ground track
Ground track

The orbit data is extracted from the following two-line orbital elements,

1 12586U 81065B   20304.93935811 +.00000308 +00000-0 +22473-4 0  9993
2 12586 097.6353 287.1652 0017324 295.9515 063.9929 15.10821096138273
Epoch (UTC): 30 October 2020 22:32:40
Eccentricity: 0.0017324
inclination: 97.6353°
perigee height: 522 km
apogee height: 545 km
right ascension of ascending node: 287.1652°
argument of perigee: 295.9515°
revolutions per day: 15.10821096
mean anomaly at epoch: 63.9929°
orbit number at epoch: 13827

The dashed part of the orbit path shows where the satellite is in the earth's shadow,  

DLR